"startDT [UTC]","vpos","CH4 [ppm]","stdev(CH4) [ppm]","CO2 [ppm]","stdev(CO2) [ppm]","H2O_reported [%]","stdev(H2O_reported)","CavityPressure [torr]","CavityTemp [C]","OutletValve","CH4_dry [ppm]","CO2_dry [ppm]","DasTemp [C]","EtalonTemp [C]","WarmBoxTemp [C]","MPVPosition","T_ECpre [C]","T_EC1 [C]","T_EC2 [C]","p_inlet [hPa]","p_in [hPa]","p_out [hPa]","T_inlet [C]","RH_inlet [%]","dwpt_inlet [C]","T_vent [C]","RH_vent [%]","dwpt_vent [C]","flow_vent [l min-1]","flow_inlet [l min-1]","dwpt_sample [C]","T_room [C]"
2013-10-30 00:00:00,0.0,1.92225,0.00036,396.743,0.004,0.1521,0.0010,139.999,45.000,31375.27110,1.92514,397.470,29.693,45.059,45.000,0.00,0.11,-272.58,-272.64,-13,560,3,15.9,6.3,-21.0,16.2,6.5,-20.5,5.73,2.53,-11.8,22.7
2013-10-30 00:01:00,0.0,1.92145,0.00034,396.735,0.028,0.1513,0.0012,140.002,45.000,31376.87033,1.92435,397.459,29.688,45.059,45.000,0.00,0.11,-272.58,-272.64,-13,560,3,16.0,6.4,-20.9,16.2,6.6,-20.4,5.73,2.57,-11.8,22.7
2013-10-30 00:02:00,0.0,1.92136,0.00038,396.735,0.038,0.1543,0.0021,140.005,45.000,31379.02908,1.92441,397.475,29.688,45.059,45.000,0.00,0.11,-272.58,-272.64,-13,560,3,16.0,6.4,-20.9,16.2,6.6,-20.4,5.73,2.60,-11.8,22.7
2013-10-30 00:03:00,0.0,1.92111,0.00030,396.750,0.035,0.1536,0.0016,140.002,45.000,31378.06965,1.92399,397.483,29.688,45.059,45.000,0.00,0.11,-272.58,-272.64,-13,560,3,16.0,6.4,-20.9,16.2,6.6,-20.4,5.73,2.61,-11.8,22.7
2013-10-30 00:04:00,0.0,1.92128,0.00018,396.742,0.025,0.1537,0.0015,140.002,45.000,31377.64357,1.92418,397.480,29.704,45.059,45.000,0.00,0.11,-272.58,-272.64,-13,560,3,16.0,6.4,-20.9,16.2,6.6,-20.4,5.73,2.58,-11.8,22.7
2013-10-30 00:05:00,0.0,1.92121,0.00019,396.757,0.026,0.1544,0.0026,140.001,45.000,31378.73946,1.92416,397.495,29.690,45.059,45.000,0.00,0.11,-272.58,-272.64,-13,560,3,15.9,6.4,-20.9,16.2,6.6,-20.4,5.73,2.54,-11.8,22.7
2013-10-30 00:06:00,0.0,1.92122,0.00035,396.742,0.008,0.1535,0.0010,139.999,45.000,31376.01371,1.92405,397.475,29.690,45.059,45.000,0.00,0.11,-272.58,-272.64,-13,560,3,15.9,6.4,-20.9,16.2,6.6,-20.4,5.73,2.53,-11.8,22.7
2013-10-30 00:07:00,0.0,1.92174,0.00025,396.756,0.012,0.1524,0.0007,140.000,45.000,31374.19854,1.92468,397.487,29.690,45.059,45.000,0.00,0.11,-272.58,-272.65,-13,560,3,15.9,6.4,-21.0,16.2,6.6,-20.4,5.73,2.56,-11.8,22.7
2013-10-30 00:08:00,0.0,1.92127,0.00028,396.755,0.023,0.1508,0.0010,140.004,45.000,31378.14377,1.92419,397.478,29.688,45.059,45.000,0.00,0.11,-272.58,-272.64,-13,560,3,15.9,6.3,-21.1,16.2,6.5,-20.5,5.73,2.60,-11.8,22.7
2013-10-30 00:09:00,0.0,1.92191,0.00035,396.719,0.006,0.1512,0.0011,139.999,45.000,31374.76686,1.92465,397.444,29.688,45.059,45.000,0.00,0.11,-272.58,-272.64,-13,560,3,15.9,6.3,-21.1,16.1,6.5,-20.6,5.73,2.61,-11.9,22.7
2013-10-30 00:10:00,0.0,1.92142,0.00031,396.746,0.016,0.1490,0.0019,140.003,45.000,31375.86711,1.92425,397.457,29.683,45.059,45.000,0.00,0.11,-272.58,-272.64,-13,559,3,15.9,6.3,-21.2,16.1,6.5,-20.6,5.73,2.58,-11.8,22.7
2013-10-30 00:11:00,0.0,1.92175,0.00043,396.744,0.020,0.1488,0.0022,140.000,45.000,31374.74988,1.92449,397.457,29.666,45.059,45.000,0.00,0.11,-272.58,-272.64,-13,559,3,15.9,6.2,-21.2,16.1,6.4,-20.7,5.73,2.54,-11.8,22.7
2013-10-30 00:12:00,0.0,1.92183,0.00031,396.682,0.035,0.1503,0.0019,139.999,45.000,31375.44747,1.92468,397.403,29.650,45.059,45.000,0.00,0.11,-272.58,-272.64,-13,560,3,15.9,6.2,-21.2,16.1,6.4,-20.7,5.73,2.52,-11.8,22.7
2013-10-30 00:13:00,0.0,1.92157,0.00039,396.713,0.042,0.1496,0.0009,139.998,45.000,31375.53660,1.92445,397.432,29.640,45.059,45.000,0.00,0.11,-272.58,-272.64,-13,560,3,15.8,6.3,-21.2,16.1,6.5,-20.6,5.73,2.56,-11.8,22.6
2013-10-30 00:14:00,0.0,1.92173,0.00038,396.683,0.035,0.1492,0.0011,140.002,45.000,31376.83038,1.92463,397.399,29.651,45.059,45.000,0.00,0.11,-272.58,-272.64,-13,560,3,15.9,6.3,-21.2,16.1,6.5,-20.7,5.73,2.60,-11.9,22.6
2013-10-30 00:15:00,0.0,1.92133,0.00027,396.681,0.026,0.1491,0.0020,140.005,45.000,31378.08803,1.92413,397.386,29.651,45.059,45.000,0.00,0.11,-272.58,-272.64,-13,560,3,15.9,6.2,-21.2,16.1,6.4,-20.7,5.73,2.60,-11.9,22.7
2013-10-30 00:16:00,0.0,1.92130,0.00036,396.673,0.042,0.1503,0.0014,140.001,45.000,31376.90216,1.92424,397.397,29.680,45.059,45.000,0.00,0.11,-272.58,-272.64,-13,560,3,15.9,6.2,-21.2,16.1,6.4,-20.7,5.73,2.56,-11.9,22.7
2013-10-30 00:17:00,0.0,1.92090,0.00043,396.719,0.033,0.1498,0.0012,140.004,45.000,31376.94796,1.92366,397.427,29.684,45.059,45.000,0.00,0.11,-272.58,-272.64,-13,559,3,15.9,6.2,-21.2,16.1,6.4,-20.7,5.73,2.53,-11.9,22.7
2013-10-30 00:18:00,0.0,1.92113,0.00045,396.697,0.027,0.1512,0.0013,140.006,45.000,31374.57701,1.92399,397.426,29.688,45.059,45.000,0.00,0.11,-272.58,-272.64,-13,559,3,15.9,6.3,-21.2,16.1,6.5,-20.6,5.73,2.54,-11.9,22.7
2013-10-30 00:19:00,0.0,1.92117,0.00041,396.708,0.016,0.1504,0.0012,140.000,45.000,31375.55454,1.92412,397.426,29.687,45.059,45.000,0.00,0.11,-272.58,-272.64,-13,559,3,15.9,6.3,-21.1,16.1,6.5,-20.6,5.73,2.59,-11.9,22.7
2013-10-30 00:20:00,0.0,1.92135,0.00026,396.701,0.051,0.1512,0.0016,139.999,45.000,31370.75701,1.92410,397.423,29.688,45.059,45.000,0.00,0.11,-272.58,-272.64,-13,560,3,15.9,6.3,-21.1,16.1,6.5,-20.6,5.73,2.61,-11.9,22.7
2013-10-30 00:21:00,0.0,1.92104,0.00028,396.673,0.014,0.1510,0.0013,139.997,45.000,31371.08279,1.92401,397.396,29.679,45.059,45.000,0.00,0.11,-272.58,-272.64,-13,560,3,15.9,6.3,-21.1,16.1,6.5,-20.6,5.73,2.58,-11.9,22.6
2013-10-30 00:22:00,0.0,1.92113,0.00020,396.671,0.015,0.1507,0.0012,140.004,45.000,31371.85407,1.92395,397.392,29.673,45.059,45.000,0.00,0.11,-272.58,-272.64,-13,560,3,15.8,6.3,-21.2,16.1,6.5,-20.6,5.73,2.53,-11.9,22.7
2013-10-30 00:23:00,0.0,1.92133,0.00033,396.706,0.029,0.1512,0.0011,139.998,45.000,31368.88506,1.92420,397.427,29.647,45.059,45.000,0.00,0.11,-272.58,-272.64,-13,559,3,15.8,6.3,-21.2,16.1,6.5,-20.6,5.73,2.53,-11.9,22.7
2013-10-30 00:24:00,0.0,1.92139,0.00020,396.701,0.021,0.1487,0.0014,139.997,45.000,31368.45086,1.92419,397.418,29.628,45.059,45.000,0.00,0.11,-272.59,-272.64,-13,559,3,15.8,6.2,-21.3,16.1,6.5,-20.7,5.73,2.57,-11.9,22.7
2013-10-30 00:25:00,0.0,1.92062,0.00041,396.685,0.003,0.1506,0.0014,140.003,45.000,31370.83240,1.92358,397.405,29.628,45.060,45.001,0.00,0.11,-272.59,-272.64,-13,559,3,15.8,6.3,-21.2,16.1,6.5,-20.6,5.73,2.61,-11.9,22.7
2013-10-30 00:26:00,0.0,1.92071,0.00037,396.666,0.053,0.1507,0.0014,140.004,45.000,31368.61691,1.92353,397.385,29.625,45.060,45.001,0.00,0.11,-272.58,-272.64,-13,559,3,15.8,6.3,-21.2,16.0,6.5,-20.6,5.73,2.60,-11.9,22.7
2013-10-30 00:27:00,0.0,1.92101,0.00029,396.691,0.039,0.1512,0.0020,140.005,45.000,31367.19590,1.92390,397.420,29.626,45.059,45.000,0.00,0.11,-272.58,-272.64,-13,559,3,15.8,6.3,-21.1,16.0,6.5,-20.6,5.73,2.54,-11.9,22.6
2013-10-30 00:28:00,0.0,1.92072,0.00070,396.657,0.028,0.1513,0.0015,139.998,45.000,31364.46777,1.92365,397.377,29.630,45.059,45.000,0.00,0.11,-272.58,-272.64,-13,559,3,15.8,6.3,-21.1,16.0,6.5,-20.6,5.73,2.52,-11.9,22.6
2013-10-30 00:29:00,0.0,1.92059,0.00057,396.682,0.031,0.1519,0.0014,140.002,45.000,31366.74971,1.92342,397.409,29.631,45.059,45.000,0.00,0.11,-272.58,-272.64,-13,559,3,15.8,6.4,-21.1,16.0,6.5,-20.6,5.73,2.56,-11.9,22.6
2013-10-30 00:30:00,0.0,1.92079,0.00046,396.656,0.009,0.1517,0.0015,140.002,45.000,31366.00581,1.92355,397.386,29.625,45.059,45.000,0.00,0.11,-272.58,-272.65,-13,559,3,15.8,6.3,-21.1,16.0,6.5,-20.6,5.73,2.61,-11.9,22.5
2013-10-30 00:31:00,0.0,1.92080,0.00041,396.679,0.028,0.1512,0.0009,140.006,45.000,31367.55030,1.92374,397.397,29.631,45.059,45.000,0.00,0.11,-272.58,-272.64,-13,559,3,15.8,6.3,-21.1,16.0,6.5,-20.6,5.73,2.61,-11.9,22.6
2013-10-30 00:32:00,0.0,1.92068,0.00030,396.633,0.040,0.1519,0.0017,140.003,45.000,31365.18323,1.92351,397.362,29.664,45.059,45.000,0.00,0.11,-272.58,-272.64,-13,559,3,15.8,6.4,-21.1,16.0,6.6,-20.6,5.73,2.57,-11.9,22.6
2013-10-30 00:33:00,0.0,1.92098,0.00025,396.694,0.024,0.1521,0.0023,140.000,45.000,31366.26455,1.92385,397.426,29.673,45.059,45.000,0.00,0.11,-272.58,-272.64,-13,559,3,15.8,6.3,-21.1,16.0,6.5,-20.6,5.73,2.53,-11.9,22.6
2013-10-30 00:34:00,0.0,1.92099,0.00069,396.704,0.018,0.1497,0.0010,140.003,45.000,31365.95862,1.92388,397.416,29.680,45.059,45.000,0.00,0.11,-272.58,-272.64,-13,559,3,15.8,6.3,-21.1,16.0,6.5,-20.6,5.73,2.53,-11.9,22.6
2013-10-30 00:35:00,0.0,1.92144,0.00031,396.744,0.051,0.1507,0.0011,140.005,45.000,31364.06141,1.92420,397.462,29.680,45.059,44.999,0.00,0.11,-272.58,-272.64,-13,559,3,15.8,6.3,-21.1,16.0,6.5,-20.6,5.73,2.58,-11.9,22.6
2013-10-30 00:36:00,0.0,1.92105,0.00046,396.723,0.019,0.1498,0.0013,140.002,45.000,31363.88951,1.92393,397.442,29.659,45.058,44.999,0.00,0.11,-272.58,-272.64,-13,559,3,15.8,6.3,-21.2,16.0,6.5,-20.6,5.73,2.61,-11.9,22.6
2013-10-30 00:37:00,0.0,1.92107,0.00049,396.698,0.020,0.1489,0.0017,140.008,45.000,31366.14533,1.92395,397.416,29.643,45.059,45.000,0.00,0.11,-272.59,-272.64,-13,559,3,15.8,6.3,-21.1,16.0,6.5,-20.6,5.73,2.59,-11.9,22.6
2013-10-30 00:38:00,0.0,1.92050,0.00032,396.703,0.026,0.1507,0.0014,139.997,45.000,31364.87948,1.92338,397.422,29.627,45.059,45.000,0.00,0.11,-272.59,-272.64,-13,559,3,15.8,6.3,-21.1,16.0,6.6,-20.5,5.73,2.54,-11.9,22.6
2013-10-30 00:39:00,0.0,1.92073,0.00033,396.723,0.046,0.1511,0.0014,140.001,45.000,31364.76751,1.92355,397.439,29.625,45.059,45.000,0.00,0.11,-272.58,-272.64,-13,559,3,15.8,6.3,-21.1,16.0,6.6,-20.6,5.73,2.52,-12.0,22.6
2013-10-30 00:40:00,0.0,1.92080,0.00050,396.714,0.031,0.1499,0.0014,139.995,45.000,31359.88711,1.92370,397.434,29.625,45.059,45.000,0.00,0.11,-272.58,-272.64,-13,559,3,15.8,6.3,-21.2,16.0,6.5,-20.6,5.73,2.57,-11.9,22.6
2013-10-30 00:41:00,0.0,1.92042,0.00041,396.674,0.015,0.1508,0.0027,139.999,45.000,31362.31642,1.92323,397.404,29.625,45.059,45.000,0.00,0.11,-272.58,-272.64,-13,559,3,15.8,6.3,-21.1,16.0,6.5,-20.6,5.73,2.61,-11.9,22.6
2013-10-30 00:42:00,0.0,1.92076,0.00041,396.687,0.003,0.1513,0.0023,140.008,45.000,31365.05382,1.92355,397.408,29.625,45.059,45.000,0.00,0.29,-271.30,-272.14,-13,559,3,15.8,6.3,-21.1,16.0,6.5,-20.6,5.42,2.61,-14.4,22.6
2013-10-30 00:43:00,0.0,1.92064,0.00045,396.705,0.013,0.1504,0.0016,139.998,45.000,31361.85125,1.92357,397.424,29.617,45.059,45.000,0.00,0.11,-272.58,-272.64,-13,559,3,15.8,6.3,-21.2,16.0,6.5,-20.6,5.73,2.56,-12.0,22.6
2013-10-30 00:44:00,0.0,1.92056,0.00046,396.661,0.027,0.1524,0.0008,139.994,45.000,31359.12237,1.92352,397.396,29.625,45.059,45.000,0.00,0.11,-272.58,-272.64,-13,559,3,15.8,6.4,-21.1,16.0,6.6,-20.5,5.73,2.53,-12.0,22.6
2013-10-30 00:45:00,0.0,1.92066,0.00023,396.658,0.016,0.1517,0.0022,140.004,45.000,31364.04705,1.92348,397.380,29.612,45.059,45.000,0.00,0.11,-272.58,-272.64,-13,559,3,15.8,6.4,-21.0,16.0,6.6,-20.5,5.73,2.54,-12.0,22.6
2013-10-30 00:46:00,0.0,1.92027,0.00051,396.649,0.032,0.1527,0.0018,140.000,45.000,31362.83057,1.92309,397.378,29.609,45.059,45.000,0.00,0.11,-272.58,-272.64,-13,559,3,15.8,6.4,-21.0,16.0,6.6,-20.5,5.73,2.60,-12.0,22.6
2013-10-30 00:47:00,0.0,1.92080,0.00048,396.709,0.023,0.1527,0.0015,140.001,45.000,31363.49115,1.92374,397.442,29.603,45.059,45.000,0.00,0.11,-272.58,-272.64,-13,559,3,15.8,6.4,-21.0,16.0,6.6,-20.5,5.73,2.62,-12.0,22.6
2013-10-30 00:48:00,0.0,1.92029,0.00026,396.718,0.026,0.1532,0.0013,140.001,45.000,31364.80414,1.92327,397.447,29.592,45.059,45.000,0.00,0.11,-272.59,-272.65,-13,559,3,15.8,6.4,-21.0,16.0,6.6,-20.5,5.73,2.57,-12.0,22.6
2013-10-30 00:49:00,0.0,1.92055,0.00039,396.704,0.013,0.1527,0.0010,139.994,45.000,31363.44673,1.92340,397.434,29.575,45.059,45.000,0.00,0.11,-272.58,-272.64,-13,559,3,15.8,6.4,-21.0,16.0,6.6,-20.5,5.73,2.52,-12.0,22.6
2013-10-30 00:50:00,0.0,1.92049,0.00033,396.691,0.023,0.1520,0.0019,140.003,45.000,31366.20098,1.92330,397.421,29.563,45.059,45.000,0.00,0.11,-272.58,-272.64,-13,559,3,15.8,6.4,-21.0,16.0,6.6,-20.5,5.73,2.54,-12.0,22.6
2013-10-30 00:51:00,0.0,1.92100,0.00032,396.759,0.035,0.1527,0.0009,140.001,45.000,31364.56608,1.92386,397.479,29.563,45.059,45.000,0.00,0.11,-272.59,-272.64,-13,559,3,15.8,6.4,-21.0,16.0,6.6,-20.5,5.73,2.60,-12.0,22.6
2013-10-30 00:52:00,0.0,1.92049,0.00053,396.787,0.046,0.1516,0.0014,140.003,45.000,31363.57786,1.92341,397.515,29.554,45.059,45.000,0.00,0.11,-272.58,-272.64,-13,559,3,15.8,6.4,-21.1,16.0,6.6,-20.5,5.73,2.62,-12.0,22.6
2013-10-30 00:53:00,0.0,1.92086,0.00037,396.790,0.014,0.1522,0.0018,140.001,45.000,31362.72357,1.92376,397.518,29.541,45.060,45.000,0.00,0.11,-272.58,-272.64,-13,559,3,15.8,6.4,-21.0,16.0,6.6,-20.5,5.73,2.57,-12.0,22.5
2013-10-30 00:54:00,0.0,1.92074,0.00049,396.881,0.059,0.1519,0.0011,140.004,45.000,31362.27224,1.92356,397.596,29.526,45.059,45.000,0.00,0.11,-272.59,-272.64,-13,559,3,15.8,6.4,-21.0,16.0,6.6,-20.5,5.73,2.52,-12.0,22.5
2013-10-30 00:55:00,0.0,1.92098,0.00048,396.935,0.021,0.1523,0.0008,140.005,45.000,31359.68847,1.92399,397.665,29.501,45.059,45.000,0.00,0.11,-272.59,-272.64,-13,559,3,15.8,6.4,-21.0,16.0,6.6,-20.5,5.73,2.53,-12.0,22.5
2013-10-30 00:56:00,0.0,1.92095,0.00054,396.980,0.044,0.1521,0.0009,140.004,45.000,31359.99235,1.92372,397.703,29.500,45.059,45.000,0.00,0.11,-272.58,-272.64,-13,559,3,15.8,6.4,-21.0,16.0,6.6,-20.5,5.73,2.59,-12.0,22.5
2013-10-30 00:57:00,0.0,1.92110,0.00055,396.927,0.091,0.1522,0.0016,140.005,45.000,31360.11179,1.92403,397.658,29.496,45.059,45.000,0.00,0.11,-272.58,-272.64,-13,559,3,15.8,6.4,-20.9,16.0,6.6,-20.4,5.73,2.62,-12.0,22.5
2013-10-30 00:58:00,0.0,1.92061,0.00050,396.903,0.079,0.1530,0.0030,140.003,45.000,31359.18155,1.92354,397.640,29.500,45.059,45.000,0.00,0.11,-272.58,-272.64,-13,559,3,15.8,6.4,-21.0,16.0,6.6,-20.5,5.73,2.57,-12.0,22.5
2013-10-30 00:59:00,0.0,1.92126,0.00032,396.929,0.014,0.1521,0.0025,140.004,45.000,31361.13153,1.92401,397.656,29.495,45.059,45.000,0.00,0.11,-272.58,-272.64,-13,560,3,15.8,6.4,-21.0,16.0,6.6,-20.5,5.73,2.52,-12.0,22.5
2013-10-30 01:00:00,0.0,1.92100,0.00039,397.033,0.050,0.1522,0.0018,139.995,45.000,31356.52852,1.92391,397.755,29.500,45.059,45.000,0.00,0.11,-272.58,-272.64,-13,560,3,15.8,6.4,-21.0,16.0,6.6,-20.5,5.73,2.55,-12.0,22.6
2013-10-30 01:01:00,0.0,1.92131,0.00049,397.104,0.040,0.1524,0.0016,140.004,45.000,31357.95912,1.92422,397.834,29.493,45.059,45.000,0.00,0.11,-272.59,-272.65,-13,560,3,15.9,6.3,-21.1,16.1,6.6,-20.5,5.73,2.61,-12.0,22.6
2013-10-30 01:02:00,0.0,1.92127,0.00016,397.036,0.055,0.1512,0.0008,139.999,45.000,31357.57087,1.92407,397.763,29.491,45.059,45.000,0.00,0.11,-272.58,-272.64,-13,560,3,15.9,6.4,-21.0,16.1,6.5,-20.5,5.73,2.60,-12.0,22.6
2013-10-30 01:03:00,0.0,1.92090,0.00043,396.984,0.042,0.1512,0.0015,139.995,45.000,31358.28729,1.92388,397.717,29.484,45.059,45.000,0.00,0.11,-272.58,-272.64,-13,560,3,15.9,6.3,-21.0,16.1,6.5,-20.5,5.73,2.53,-11.5,22.6
2013-10-30 01:04:00,0.0,1.92066,0.00036,396.984,0.070,0.1514,0.0013,139.998,45.000,31358.05417,1.92350,397.709,29.452,45.059,45.000,0.00,0.11,-272.59,-272.64,-13,560,3,15.9,6.3,-21.0,16.1,6.5,-20.5,5.73,2.52,-11.0,22.6
2013-10-30 01:05:00,0.0,1.92069,0.00030,396.870,0.033,0.1528,0.0014,140.004,45.000,31359.47923,1.92354,397.607,29.438,45.059,45.000,0.00,0.11,-272.58,-272.64,-13,560,3,15.8,6.3,-21.1,16.0,6.6,-20.5,5.73,2.58,-11.1,22.6
2013-10-30 01:06:00,0.0,1.92109,0.00045,396.864,0.017,0.1516,0.0020,140.000,45.000,31359.43979,1.92404,397.588,29.424,45.059,45.000,0.00,0.11,-272.58,-272.64,-13,560,3,15.8,6.4,-21.0,16.0,6.6,-20.5,5.73,2.62,-11.2,22.6
2013-10-30 01:07:00,0.0,1.92087,0.00032,396.898,0.066,0.1520,0.0019,139.999,45.000,31358.16365,1.92364,397.618,29.383,45.059,45.000,0.00,0.11,-272.58,-272.64,-13,560,3,15.8,6.4,-21.1,16.0,6.6,-20.5,5.73,2.58,-11.3,22.6
2013-10-30 01:08:00,0.0,1.92091,0.00031,397.074,0.038,0.1505,0.0014,140.000,45.000,31358.12250,1.92389,397.784,29.377,45.060,45.001,0.00,0.11,-272.58,-272.65,-13,560,3,15.8,6.3,-21.1,16.0,6.6,-20.5,5.73,2.52,-11.4,22.5
2013-10-30 01:09:00,0.0,1.92091,0.00056,397.137,0.077,0.1509,0.0010,140.003,45.000,31359.11629,1.92369,397.854,29.380,45.060,45.001,0.00,0.11,-272.58,-272.64,-13,559,3,15.8,6.4,-21.1,16.0,6.6,-20.5,5.73,2.54,-11.4,22.5
2013-10-30 01:10:00,0.0,1.92123,0.00030,397.170,0.052,0.1518,0.0016,140.005,45.000,31357.72428,1.92413,397.892,29.375,45.059,45.000,0.00,0.11,-272.58,-272.64,-13,560,3,15.8,6.4,-21.1,16.0,6.6,-20.5,5.73,2.60,-11.5,22.5
2013-10-30 01:11:00,0.0,1.92116,0.00025,397.389,0.071,0.1523,0.0030,139.996,45.000,31356.21189,1.92405,398.105,29.375,45.059,45.000,0.00,0.11,-272.58,-272.64,-13,560,3,15.8,6.4,-21.0,16.0,6.6,-20.5,5.73,2.61,-11.6,22.5
2013-10-30 01:12:00,0.0,1.92136,0.00032,397.309,0.102,0.1511,0.0021,140.007,45.000,31358.58806,1.92420,398.037,29.375,45.059,45.000,0.00,0.11,-272.58,-272.64,-13,560,3,15.8,6.3,-21.1,16.0,6.5,-20.6,5.73,2.54,-11.6,22.5
2013-10-30 01:13:00,0.0,1.92131,0.00051,397.429,0.095,0.1511,0.0029,139.997,45.000,31355.44756,1.92422,398.166,29.373,45.059,45.000,0.00,0.11,-272.58,-272.64,-13,560,3,15.8,6.3,-21.1,16.1,6.5,-20.6,5.73,2.52,-11.6,22.5
2013-10-30 01:14:00,0.0,1.92112,0.00042,397.384,0.063,0.1519,0.0019,140.004,45.000,31358.59424,1.92410,398.094,29.375,45.059,45.000,0.00,0.11,-272.58,-272.64,-13,560,3,15.9,6.3,-21.1,16.1,6.5,-20.6,5.73,2.59,-11.7,22.5
2013-10-30 01:15:00,0.0,1.92101,0.00036,397.272,0.114,0.1493,0.0015,140.004,45.000,31357.40163,1.92369,398.015,29.375,45.059,44.999,0.00,0.11,-272.59,-272.64,-13,560,3,15.9,6.3,-21.1,16.1,6.5,-20.6,5.73,2.62,-11.7,22.6
2013-10-30 01:16:00,0.0,1.92127,0.00025,397.256,0.120,0.1507,0.0017,139.999,45.000,31357.65051,1.92416,397.966,29.375,45.059,44.999,0.00,0.11,-272.59,-272.64,-13,560,3,15.9,6.3,-21.1,16.1,6.5,-20.6,5.73,2.57,-11.8,22.6
2013-10-30 01:17:00,0.0,1.92109,0.00025,397.224,0.050,0.1522,0.0025,140.006,45.000,31359.50732,1.92395,397.960,29.358,45.059,44.999,0.00,0.11,-272.58,-272.64,-13,560,3,15.9,6.3,-21.1,16.1,6.5,-20.6,5.73,2.52,-11.8,22.5
2013-10-30 01:18:00,0.0,1.92056,0.00057,397.245,0.079,0.1524,0.0015,140.006,45.000,31363.23624,1.92348,397.965,29.324,45.059,45.000,0.00,0.11,-272.58,-272.65,-13,560,3,15.9,6.3,-21.1,16.1,6.5,-20.5,5.73,2.54,-11.8,22.6
2013-10-30 01:19:00,0.0,1.92110,0.00054,397.285,0.077,0.1510,0.0016,139.996,45.000,31359.65300,1.92401,398.014,29.313,45.059,45.000,0.00,0.11,-272.58,-272.64,-13,560,3,15.9,6.3,-21.1,16.1,6.5,-20.5,5.73,2.61,-11.8,22.5
2013-10-30 01:20:00,0.0,1.92108,0.00017,397.293,0.034,0.1515,0.0015,140.002,45.000,31360.24435,1.92391,398.016,29.313,45.059,45.000,0.00,0.11,-272.58,-272.64,-13,560,3,15.8,6.3,-21.1,16.1,6.5,-20.5,5.73,2.62,-11.9,22.5
2013-10-30 01:21:00,0.0,1.92135,0.00091,397.261,0.075,0.1498,0.0015,139.993,45.000,31356.61694,1.92404,397.978,29.313,45.059,45.000,0.00,0.11,-272.58,-272.64,-13,560,3,15.8,6.3,-21.1,16.0,6.5,-20.6,5.73,2.54,-11.9,22.5
2013-10-30 01:22:00,0.0,1.92172,0.00055,397.318,0.006,0.1504,0.0006,139.999,45.000,31358.60940,1.92485,398.038,29.313,45.059,45.000,0.00,0.11,-272.58,-272.64,-13,560,3,15.8,6.3,-21.1,16.0,6.5,-20.6,5.73,2.51,-11.9,22.5
2013-10-30 01:23:00,0.0,1.92084,0.00048,397.090,0.058,0.1506,0.0015,140.004,45.000,31359.33072,1.92362,397.828,29.310,45.059,45.000,0.00,0.11,-272.58,-272.64,-13,560,3,15.8,6.3,-21.1,16.0,6.5,-20.6,5.73,2.58,-12.0,22.5
2013-10-30 01:24:00,0.0,1.92110,0.00035,397.130,0.008,0.1518,0.0017,140.005,45.000,31358.43587,1.92409,397.853,29.310,45.059,45.000,0.00,0.11,-272.58,-272.64,-13,560,3,15.8,6.4,-21.1,16.0,6.6,-20.6,5.73,2.63,-12.0,22.5
2013-10-30 01:25:00,0.0,1.92146,0.00041,397.151,0.034,0.1507,0.0014,139.997,45.000,31355.37320,1.92422,397.866,29.288,45.059,45.000,0.00,0.11,-272.58,-272.64,-13,560,3,15.8,6.4,-21.1,16.0,6.5,-20.6,5.73,2.57,-12.0,22.5
2013-10-30 01:26:00,0.0,1.92157,0.00038,397.125,0.048,0.1506,0.0015,139.999,45.000,31353.91637,1.92442,397.855,29.261,45.059,45.000,0.00,0.11,-272.57,-272.64,-13,560,3,15.8,6.3,-21.1,16.0,6.6,-20.6,5.73,2.52,-12.0,22.5
2013-10-30 01:27:00,0.0,1.92124,0.00064,397.089,0.032,0.1524,0.0011,140.006,45.000,31360.19147,1.92427,397.819,29.292,45.059,45.000,0.00,0.11,-272.58,-272.64,-13,560,3,15.8,6.3,-21.1,16.0,6.6,-20.5,5.73,2.56,-12.0,22.5
2013-10-30 01:28:00,0.0,1.92201,0.00063,397.151,0.063,0.1512,0.0014,140.002,45.000,31360.22649,1.92465,397.865,29.270,45.059,45.000,0.00,0.11,-272.58,-272.64,-13,560,3,15.8,6.3,-21.1,16.0,6.5,-20.6,5.73,2.62,-12.1,22.5
2013-10-30 01:29:00,0.0,1.92212,0.00030,397.262,0.019,0.1514,0.0018,140.000,45.000,31358.30566,1.92504,397.984,29.251,45.059,45.000,0.00,0.11,-272.58,-272.64,-13,560,3,15.8,6.3,-21.1,16.0,6.6,-20.6,5.73,2.59,-12.1,22.5
2013-10-30 01:30:00,0.0,1.92217,0.00032,397.210,0.031,0.1522,0.0026,140.003,45.000,31356.16770,1.92493,397.944,29.249,45.059,45.000,0.00,0.11,-272.58,-272.64,-13,560,3,15.8,6.4,-21.1,16.0,6.6,-20.5,5.73,2.52,-12.1,22.5
2013-10-30 01:31:00,0.0,1.92187,0.00065,397.183,0.018,0.1521,0.0015,140.004,45.000,31355.30745,1.92471,397.914,29.250,45.059,45.000,0.00,0.11,-272.58,-272.64,-13,560,3,15.8,6.4,-21.0,16.0,6.6,-20.5,5.73,2.54,-12.1,22.4
2013-10-30 01:32:00,0.0,1.92179,0.00058,397.207,0.053,0.1507,0.0009,140.003,45.000,31351.59145,1.92488,397.922,29.248,45.060,45.000,0.00,0.11,-272.59,-272.64,-13,559,3,15.7,6.4,-21.0,16.0,6.6,-20.5,5.73,2.61,-12.1,22.5
2013-10-30 01:33:00,0.0,1.92178,0.00058,397.225,0.050,0.1519,0.0012,140.006,45.000,31350.70719,1.92464,397.959,29.244,45.060,45.000,0.00,0.11,-272.58,-272.64,-13,559,3,15.7,6.4,-21.0,15.9,6.6,-20.5,5.73,2.61,-12.1,22.5
2013-10-30 01:34:00,0.0,1.92214,0.00047,397.189,0.009,0.1519,0.0005,140.002,45.000,31351.76992,1.92485,397.916,29.201,45.059,45.000,0.00,0.11,-272.58,-272.64,-13,559,3,15.7,6.4,-21.0,15.9,6.6,-20.5,5.73,2.54,-12.2,22.5
2013-10-30 01:35:00,0.0,1.92163,0.00055,397.167,0.015,0.1530,0.0010,140.005,45.000,31352.32325,1.92470,397.902,29.191,45.060,45.001,0.00,0.11,-272.58,-272.64,-13,560,3,15.7,6.4,-21.0,15.9,6.6,-20.5,5.73,2.52,-12.1,22.5
2013-10-30 01:36:00,0.0,1.92160,0.00052,397.163,0.029,0.1518,0.0015,140.003,45.000,31351.45037,1.92440,397.887,29.188,45.060,45.000,0.00,0.11,-272.58,-272.64,-13,559,3,15.7,6.4,-21.0,15.9,6.6,-20.5,5.73,2.58,-12.2,22.4
2013-10-30 01:37:00,0.0,1.92174,0.00033,397.245,0.019,0.1513,0.0011,140.008,45.000,31352.56895,1.92462,397.965,29.188,45.060,45.001,0.00,0.11,-272.58,-272.64,-13,559,3,15.7,6.4,-21.0,15.9,6.6,-20.5,5.73,2.62,-12.2,22.4
2013-10-30 01:38:00,0.0,1.92261,0.00037,397.266,0.013,0.1514,0.0018,139.999,45.000,31350.04914,1.92536,397.992,29.193,45.060,45.000,0.00,0.11,-272.58,-272.64,-13,559,3,15.7,6.4,-21.0,15.9,6.6,-20.5,5.73,2.57,-12.2,22.4
2013-10-30 01:39:00,0.0,1.92225,0.00037,397.265,0.018,0.1533,0.0012,140.002,45.000,31350.90867,1.92531,398.000,29.194,45.060,45.000,0.00,0.11,-272.58,-272.65,-13,559,3,15.7,6.5,-21.0,15.9,6.6,-20.5,5.73,2.51,-12.2,22.4
2013-10-30 01:40:00,0.0,1.92220,0.00018,397.286,0.021,0.1522,0.0015,140.002,45.000,31348.98544,1.92507,398.014,29.194,45.059,45.000,0.00,0.11,-272.58,-272.64,-13,559,3,15.7,6.5,-21.0,15.9,6.6,-20.5,5.73,2.57,-12.2,22.5
2013-10-30 01:41:00,0.0,1.92216,0.00075,397.277,0.024,0.1521,0.0018,140.001,45.000,31349.46022,1.92514,398.008,29.190,45.059,45.000,0.00,0.11,-272.58,-272.64,-13,559,3,15.7,6.5,-21.0,15.9,6.7,-20.4,5.73,2.62,-12.2,22.4
2013-10-30 01:42:00,0.0,1.92109,0.00058,397.224,0.028,0.1531,0.0023,140.004,45.000,31350.67559,1.92393,397.961,29.190,45.059,45.000,0.00,0.11,-272.59,-272.64,-13,559,3,15.7,6.5,-20.9,15.9,6.7,-20.4,5.73,2.58,-12.2,22.5
2013-10-30 01:43:00,0.0,1.92185,0.00029,397.250,0.020,0.1538,0.0019,140.000,45.000,31349.77301,1.92475,397.985,29.188,45.059,45.000,0.00,0.11,-272.58,-272.64,-13,559,3,15.7,6.5,-20.9,15.9,6.7,-20.4,5.73,2.52,-12.2,22.5
2013-10-30 01:44:00,0.0,1.92264,0.00045,397.249,0.014,0.1558,0.0018,140.007,45.000,31351.86092,1.92538,397.988,29.188,45.059,45.000,0.00,0.11,-272.58,-272.64,-13,559,3,15.7,6.5,-20.9,15.9,6.7,-20.4,5.73,2.55,-12.2,22.5
2013-10-30 01:45:00,0.0,1.92173,0.00063,397.195,0.054,0.1546,0.0008,140.004,45.000,31349.17047,1.92487,397.941,29.188,45.059,45.000,0.00,0.11,-272.59,-272.64,-13,559,3,15.7,6.6,-20.8,15.9,6.7,-20.3,5.73,2.62,-12.2,22.5
2013-10-30 01:46:00,0.0,1.92169,0.00048,397.225,0.009,0.1541,0.0007,140.001,45.000,31348.10921,1.92461,397.962,29.184,45.059,45.000,0.00,0.11,-272.58,-272.64,-13,559,3,15.6,6.6,-20.8,15.9,6.8,-20.2,5.73,2.60,-12.3,22.4